Theta_e
302 301 296 300 301 302 302 302 301 302 303 301 301 300 300 300 298 297 297 296 296 295 295 294 293 293 292 292 292 291 291 292 293 294 294 295 297 299 302 303 304 304 307 307
301 301 301 301 302 302 301 296 297 300 301 300 300 300 300 300 297 297 297 297 294 294 293 293 292 292 291 291 291 291 291 292 294 293 294 296 296 298 300 303 303 306 307 308
298 303 301 302 302 300 300 297 297 299 299 298 299 297 301 300 298 298 298 295 293 293 292 291 291 290 290 289 290 290 291 291 292 293 294 296 298 299 301 302 303 305 308 308
300 301 301 302 301 298 296 301 300 300 293 294 298 295 299 300 300 299 295 293 292 290 291 290 290 289 289 289 289 289 290 291 292 292 294 296 298 300 301 302 304 305 311 311
297 301 302 300 302 299 298 300 300 300 289 295 294 293 298 300 300 296 294 294 292 290 289 289 289 288 288 288 288 289 290 290 291 291 293 296 298 300 301 303 303 306 308 309
296 299 298 299 299 299 300 297 296 295 289 291 291 292 297 297 299 296 294 293 292 290 290 289 288 287 287 287 287 288 288 289 289 290 292 295 298 303 302 303 304 308 310 310
297 299 298 297 300 300 295 289 287 290 291 296 286 295 297 297 295 295 293 292 291 290 289 288 287 287 286 286 286 287 288 288 289 290 292 293 298 303 302 302 304 307 309 311
290 291 293 299 299 295 297 291 289 288 293 293 286 294 296 296 294 294 292 291 291 289 288 288 287 286 286 285 286 286 287 287 288 290 291 292 297 300 302 304 306 308 309 309
291 295 296 298 299 295 295 293 295 287 283 292 290 292 296 295 288 291 291 291 290 289 288 287 287 286 285 285 285 286 286 287 288 288 290 291 294 296 298 300 302 303 306 309
295 289 291 295 298 295 293 295 290 286 290 290 290 287 296 290 287 287 290 288 287 286 286 287 286 285 285 285 284 284 286 286 287 288 289 291 292 295 297 298 299 300 303 304
291 286 290 295 289 291 290 290 289 288 293 290 290 293 288 288 285 285 287 287 285 284 285 286 286 285 284 283 283 283 284 285 286 287 288 290 291 294 295 297 297 298 299 301
296 294 292 292 297 297 293 291 294 290 286 292 295 297 284 284 284 283 286 285 285 280 284 286 286 285 284 283 282 282 283 284 285 285 287 289 290 292 294 295 296 297 298 300
296 288 286 291 293 293 292 295 295 289 295 295 290 292 284 279 281 283 284 285 281 282 282 285 285 284 283 282 281 281 282 283 284 285 287 287 288 290 291 293 295 297 298 299
296 297 290 292 288 285 291 295 297 293 285 289 292 293 295 293 285 283 282 281 277 277 281 283 283 283 282 281 281 281 281 282 283 285 286 286 287 288 290 291 293 295 297 296
293 292 294 294 292 289 294 293 291 293 294 291 294 287 292 293 289 290 282 274 281 278 279 280 280 281 280 280 280 280 281 281 283 284 285 286 287 288 289 290 290 292 293 294
295 288 286 286 292 293 292 292 291 291 292 291 294 294 294 292 277 280 281 274 280 274 275 277 276 279 279 279 279 280 281 281 282 283 284 285 286 287 287 288 288 289 289 289
292 287 284 286 290 287 290 287 287 286 283 285 286 289 278 282 280 278 279 276 278 274 273 276 274 277 278 278 279 280 280 281 282 282 284 285 285 286 286 286 287 287 287 287
286 287 281 284 282 287 295 292 288 289 289 286 285 286 284 283 278 278 273 279 279 272 273 274 277 278 277 277 280 281 281 281 281 282 283 284 285 285 285 285 285 285 285 286
290 287 285 285 276 287 293 293 294 294 292 291 291 291 285 283 288 285 281 280 276 275 277 280 279 277 277 277 279 280 281 281 281 282 283 284 285 285 285 285 285 285 285 285
292 291 288 278 283 285 292 293 293 292 290 291 292 293 293 289 286 284 288 285 283 282 281 280 279 277 276 277 279 280 280 280 280 281 283 285 285 285 285 285 285 285 285 285
287 288 292 292 285 285 289 291 292 287 291 293 292 292 290 288 286 286 285 283 282 281 280 279 279 277 276 276 278 278 279 279 281 283 284 285 285 285 285 284 284 284 284 284
287 287 285 285 285 289 290 290 292 292 291 292 291 289 289 287 285 284 283 282 281 280 280 279 278 277 275 276 277 276 277 279 282 283 284 284 285 284 284 284 284 283 283 283
288 289 288 290 290 291 290 291 291 289 290 290 290 288 286 286 284 283 282 281 280 281 280 279 278 277 275 275 275 276 277 279 281 282 283 282 283 283 283 283 283 282 282 282
286 286 289 288 292 291 291 291 289 289 290 289 288 288 285 285 282 282 279 279 278 280 280 279 278 277 275 275 275 275 276 278 280 281 282 281 281 281 281 280 280 280 280 279
288 287 288 287 290 290 290 289 289 289 288 285 283 285 285 284 283 283 281 279 279 280 280 279 278 277 276 275 275 275 276 278 279 280 281 281 280 280 279 279 279 279 279 278
285 291 291 296 297 295 296 294 285 287 284 285 284 281 278 283 284 282 281 282 281 280 280 279 278 277 276 275 275 275 276 277 278 280 281 280 280 279 278 278 278 279 279 279
Wind_Speed
4 5 2 3 2 2 3 3 6 7 8 6 13 19 22 13 5 6 4 1 4 6 9 17 22 25 24 26 29 25 26 27 28 24 26 27 24 26 28 30 31 33 32 30
5 1 2 2 2 2 3 2 6 6 3 7 11 16 17 8 6 6 5 3 6 7 7 13 20 22 26 25 26 27 27 25 24 26 28 26 26 29 31 30 29 32 33 30
4 2 2 1 2 2 3 3 3 7 5 5 6 8 5 3 5 5 2 3 5 8 9 12 18 19 23 24 25 25 25 28 25 28 29 27 26 26 27 29 28 28 32 30
3 3 2 1 2 4 2 1 4 8 5 2 5 5 6 3 5 3 4 7 8 7 9 9 17 21 23 24 25 26 24 26 25 28 28 26 26 24 25 26 25 26 22 24
5 1 1 1 3 4 7 7 10 6 3 4 6 3 7 1 4 1 6 9 9 7 9 12 17 23 26 25 26 25 22 25 26 29 27 27 27 31 28 27 28 28 23 21
5 1 2 2 4 2 5 5 6 4 4 2 4 4 7 4 3 2 6 8 10 9 11 12 19 23 24 26 26 25 24 23 25 25 27 27 34 26 22 22 22 21 18 22
4 2 0 1 3 5 8 6 4 6 4 5 3 1 10 3 4 3 7 9 8 11 11 12 13 18 22 25 26 27 23 27 24 23 25 26 28 17 24 26 23 20 13 14
3 7 2 2 2 4 3 5 5 4 3 6 2 6 6 5 5 3 6 7 8 12 11 13 15 20 22 24 23 26 25 26 25 24 24 25 15 12 3 2 2 2 6 11
3 5 0 2 2 5 3 2 3 2 1 2 4 8 7 3 4 5 8 9 10 11 11 11 16 20 23 24 24 25 28 26 26 27 24 22 15 12 13 10 8 9 6 4
3 4 2 3 3 4 5 2 3 3 3 6 6 6 8 6 7 6 8 9 10 9 8 9 12 20 23 24 24 25 24 25 27 26 24 20 14 13 12 12 10 9 8 8
4 3 5 3 4 8 1 2 2 3 4 4 4 7 7 8 7 6 8 10 9 9 7 7 11 18 20 22 23 24 24 24 23 24 24 21 16 12 11 10 11 8 8 9
4 4 4 10 4 4 5 7 5 4 6 4 3 10 4 7 7 7 9 10 8 7 6 7 12 17 18 20 22 23 24 23 22 23 22 19 16 13 10 8 9 8 8 6
5 1 3 7 5 4 2 5 4 3 1 7 3 8 4 4 5 7 9 11 7 7 7 9 10 13 17 20 20 21 23 23 24 22 19 16 15 11 9 8 7 6 6 3
3 3 7 7 7 3 3 5 8 6 3 4 10 18 27 14 8 7 9 7 6 5 6 7 9 11 17 20 19 21 22 23 22 19 17 15 14 11 8 5 3 2 2 2
4 5 3 7 9 6 15 15 9 11 15 7 20 7 19 18 10 11 7 5 7 7 6 7 9 11 16 20 23 23 23 24 24 20 16 13 11 8 6 4 4 4 5 5
3 4 2 5 8 9 8 17 16 19 15 15 21 25 26 23 2 4 6 6 6 5 6 7 7 11 16 20 22 23 23 25 24 23 19 14 12 11 11 11 13 12 12 13
5 3 2 6 3 7 8 9 6 6 5 7 7 15 2 5 5 6 5 7 6 5 6 7 5 11 17 19 22 21 22 24 24 24 23 19 18 19 19 19 20 22 24 24
5 4 3 4 5 2 6 4 7 10 7 15 8 9 8 7 5 6 5 6 5 4 4 6 8 13 18 16 20 22 22 24 23 25 25 24 20 21 23 25 25 26 28 27
3 4 2 1 2 9 10 3 6 7 7 12 14 15 5 3 3 6 4 5 5 5 4 4 10 10 14 15 16 18 22 25 26 24 25 26 23 22 23 25 25 26 30 30
2 3 3 3 2 6 5 1 1 2 5 7 10 9 6 4 2 4 5 5 5 4 2 4 8 10 13 15 14 14 20 22 23 24 24 26 26 26 25 25 25 26 29 29
3 2 11 8 5 10 14 7 1 5 6 5 6 5 7 5 5 3 6 5 6 5 3 2 5 9 11 11 11 11 14 19 18 20 21 24 25 24 24 26 26 25 27 30
9 8 4 3 3 9 9 5 8 6 3 3 4 6 8 6 5 5 7 7 6 7 5 1 3 6 9 10 8 8 11 11 13 15 18 20 21 22 23 22 23 23 23 22
2 8 6 11 9 5 8 6 10 7 6 4 3 5 7 8 8 7 7 8 7 11 7 3 1 3 6 7 7 5 7 8 10 13 15 18 19 20 19 21 20 18 17 18
5 6 4 2 12 22 17 14 8 6 10 7 6 6 8 8 7 7 5 6 6 13 10 7 3 1 2 4 5 5 5 6 9 13 15 16 20 21 22 23 22 20 19 18
6 8 6 8 20 14 18 12 14 13 12 7 6 8 10 8 6 8 7 7 10 14 11 10 7 5 2 2 3 4 6 8 11 14 15 17 18 19 20 23 22 21 21 18
7 10 6 10 23 10 12 7 3 8 9 13 9 5 5 10 10 8 7 13 16 16 14 12 10 7 5 3 3 4 6 9 11 15 15 13 14 16 18 19 19 19 18 17
Wind_Direction
352 61 149 155 111 158 251 251 259 260 269 329 277 284 284 293 167 166 140 39 335 315 306 336 331 325 322 323 320 320 317 310 305 303 305 298 291 297 283 280 273 265 263 261
19 153 127 78 267 283 242 256 283 290 343 324 296 286 285 249 204 174 147 349 321 317 323 323 328 325 323 321 321 316 312 308 303 305 297 285 283 282 283 279 274 268 255 254
157 176 135 120 322 3 285 192 279 270 333 270 292 294 324 29 107 138 151 29 326 326 318 331 324 319 315 315 311 309 308 308 298 302 297 286 279 278 274 272 270 269 250 250
221 214 144 63 259 116 299 244 309 312 34 274 63 277 297 199 182 157 32 346 324 300 335 316 317 316 313 310 310 306 305 303 301 303 297 284 276 271 267 270 272 265 243 231
260 135 161 130 220 135 242 325 292 289 150 16 326 61 269 186 225 201 351 330 318 323 315 320 316 312 311 313 312 306 305 305 300 301 298 288 278 265 258 261 264 266 246 245
240 159 188 245 289 212 302 329 22 69 101 4 245 114 280 233 202 342 312 313 305 306 320 309 311 314 315 316 310 307 306 303 303 301 304 296 289 249 239 252 257 257 241 228
328 299 92 259 7 11 37 43 354 355 6 227 243 347 244 213 131 190 281 291 299 314 311 315 322 323 322 318 315 315 313 307 304 303 309 303 305 258 239 250 264 243 228 226
109 331 135 288 137 186 45 123 141 254 285 271 18 227 252 181 156 221 276 279 305 318 320 324 323 328 324 318 317 318 312 309 308 310 312 305 322 351 16 215 356 204 236 235
102 281 136 44 59 112 267 71 163 111 136 4 264 288 296 181 314 323 297 342 314 315 316 317 324 330 324 321 322 319 316 313 313 313 312 309 329 347 353 358 22 14 22 2
197 340 234 269 82 6 143 168 32 11 344 303 287 280 243 266 264 305 336 300 288 286 301 326 329 331 327 324 323 322 320 320 318 316 316 314 326 341 335 341 342 336 323 310
128 104 290 62 200 180 23 345 12 129 154 202 294 265 226 222 207 239 277 270 273 280 302 322 327 326 326 325 328 327 326 321 321 324 321 321 328 332 338 323 295 302 292 273
199 154 259 229 267 157 165 190 161 132 270 228 200 268 237 194 204 206 258 268 281 266 296 316 330 333 328 331 330 328 329 327 326 324 326 327 325 328 327 303 294 290 279 279
182 276 350 339 351 359 203 221 173 134 112 220 154 266 299 297 273 254 255 278 295 316 333 328 337 334 335 334 334 334 334 331 333 332 331 331 330 326 314 303 290 271 267 280
145 216 188 209 213 146 264 226 204 153 152 223 227 273 283 276 269 275 268 262 281 321 316 304 329 333 339 335 336 339 340 344 344 343 344 341 340 335 321 319 309 228 202 228
143 223 243 253 253 220 255 254 207 204 218 196 268 222 267 281 292 291 268 311 317 338 333 323 329 331 339 337 340 345 348 351 359 355 6 8 5 10 16 44 72 89 120 121
185 258 98 284 255 245 256 253 226 224 241 252 257 276 274 280 300 281 266 282 294 297 301 318 311 328 343 338 336 342 352 358 6 8 13 29 45 59 68 78 86 90 95 94
170 151 64 264 348 313 289 238 173 186 210 160 172 232 293 283 262 252 266 234 265 274 280 314 304 322 331 340 342 342 356 10 13 17 20 33 54 64 70 79 83 83 81 82
145 123 134 267 358 294 248 190 178 196 216 211 267 265 231 233 242 243 215 206 254 246 268 298 314 348 342 352 3 2 19 23 22 23 24 34 48 59 67 72 71 73 76 74
157 129 305 233 220 299 288 178 159 175 279 206 220 251 260 251 274 296 209 200 200 188 232 296 333 7 353 360 9 12 25 31 29 17 26 36 48 58 65 68 70 72 75 73
154 91 148 83 179 243 254 234 170 123 291 202 185 231 201 154 29 260 176 182 193 178 134 8 343 14 18 8 15 21 29 31 23 21 33 47 50 56 59 65 70 78 79 77
148 204 218 215 247 279 253 235 192 87 245 168 182 190 158 192 204 182 153 169 178 180 150 45 11 23 20 16 25 32 32 32 30 45 60 67 64 63 69 73 73 72 75 76
171 162 194 139 206 274 176 78 176 222 255 222 201 191 197 202 163 175 192 179 178 183 183 105 49 35 32 33 39 33 41 29 44 60 69 72 75 78 79 81 78 77 77 74
263 196 182 187 215 241 209 221 230 165 200 220 208 213 205 197 198 190 197 195 190 189 189 192 79 67 43 48 53 51 26 43 60 66 66 71 79 81 81 80 73 69 68 72
254 176 228 85 250 243 245 252 256 228 229 214 213 203 184 204 192 204 189 200 185 182 199 201 189 245 75 69 61 73 64 74 91 78 74 75 75 73 76 75 72 71 68 64
193 146 193 261 275 276 261 239 244 249 237 226 222 197 206 193 209 197 196 199 198 193 196 207 200 199 201 113 102 94 106 112 113 104 99 89 77 76 74 72 72 72 70 76
178 203 205 248 260 238 260 250 216 217 228 230 200 223 225 189 205 191 208 199 195 194 190 201 205 210 199 175 131 113 118 131 130 122 111 105 106 107 101 94 82 68 72 71